Location: Cranbrook Institute of Science
(42.5830°N, 83.2450°W)
Time: 16:01:04
(UTC-05:00)

Daily predictions for brighter satellites

Satellite Brightness Start Highest point End
(mag) Time Altitude Azimuth Time Altitude Azimuth Time Altitude Azimuth
CZ-2C R/B 3.7 18:34:40 10° NNE 18:39:08 87° WNW 18:43:34 10° SSW
FENGYUN 3A 3.7 18:33:47 10° SSE 18:39:10 73° ENE 18:44:35 10° N
Cosmos 2233 Rocket 4.1 18:35:18 10° N 18:41:38 88° E 18:47:51 10° S
Cosmos 2227 Rocket 2.3 18:36:33 10° SSW 18:42:12 86° WNW 18:47:54 10° NNE
Cosmos 2237 Rocket 2.6 18:37:12 10° NNW 18:42:48 72° WSW 18:48:24 10° SSE
Cosmos 1378 Rocket 4.3 18:39:57 10° NNE 18:43:52 30° ENE 18:47:47 10° SE
CENTAUR R/B 2.9 18:38:42 10° S 18:44:16 44° ESE 18:50:36 10° NE
SL-16 R/B 2.4 18:41:57 10° NNW 18:47:31 53° ENE 18:53:01 10° SE
USA 267 4.5 18:43:46 10° ENE 18:49:03 27° N 18:54:20 10° NW
Cosmos 1633 3.0 18:49:30 10° SSE 18:52:46 36° E 18:56:06 10° NNE
Lacrosse 5 3.6 18:49:01 10° WNW 18:53:37 36° SW 18:58:11 10° SSE
SJ-6B 4.1 18:52:05 10° ESE 18:54:56 20° ENE 18:57:49 10° NNE
MOS 1 4.3 18:49:21 10° SSE 18:55:01 87° ENE 19:00:44 10° NNW
Cosmos 2297 Rocket 2.4 18:50:19 10° SSW 18:55:57 78° WNW 19:01:40 10° NNE
H-2A R/B 3.0 18:53:42 10° SSE 18:57:29 49° ENE 19:01:16 10° N
Sich 1 Rocket 4.3 18:55:15 10° SSE 18:59:15 32° E 19:03:15 10° NNE
Cosmos 1464 Rocket 4.1 18:55:01 10° N 19:01:02 54° ENE 19:07:01 10° SSE
COSMO-SKYMED 1 3.1 18:56:53 10° N 19:01:12 64° WNW 19:05:29 10° SSW
ERS-2 2.6 18:59:58 10° SE 19:03:25 39° ENE 19:06:53 10° N
BREEZE-M R/B 3.3 19:05:04 10° NW 19:07:19 52° NNE 19:12:05 13° ESE
Meteor 1-14 Rocket 4.3 19:02:11 10° S 19:07:55 71° E 19:13:50 10° NNE
Okean 1 3.8 19:04:29 10° N 19:08:11 36° ENE 19:11:51 10° SE
Meteor 1-20 Rocket 4.3 19:03:01 10° S 19:08:36 60° E 19:14:19 10° NNE
Iridium 4 Rocket 3.4 19:04:09 10° N 19:08:51 47° E 19:13:09 10° SSE
MOS 1-B Rocket 4.4 19:03:21 10° S 19:09:41 68° WSW 19:15:24 10° NNW
Cosmos 158 Rocket 3.8 19:05:36 10° S 19:10:27 72° ESE 19:15:20 10° NNE
Cosmos 1452 Rocket 3.6 19:06:01 10° NNW 19:11:18 87° WSW 19:16:33 10° SSE
CZ-4 R/B 4.2 19:08:14 10° SSW 19:11:27 23° W 19:14:38 10° NW
Cosmos 1072 Rocket 4.4 19:06:40 10° N 19:12:53 74° E 19:19:10 10° SSE
BREEZE-M DEB (TANK) 2.2 19:10:50 10° NW 19:13:08 38° NNE 19:14:37 20° E
Cosmos 1812 2.9 19:09:39 10° NNW 19:13:33 74° W 19:17:23 10° S
Okean 2 Rocket 4.2 19:10:37 10° SE 19:13:57 22° E 19:17:19 10° NE
ATLAS 3B R/B 4.3 19:08:15 10° WSW 19:14:34 32° NW 19:20:42 10° NNE
Cosmos 1048 Rocket 4.1 19:11:35 10° S 19:16:47 55° ESE 19:21:56 10° NNE
CZ-2D R/B 4.1 19:13:42 10° SE 19:17:07 30° ENE 19:20:34 10° N
SPOT 3 Rocket 3.8 19:13:42 10° S 19:18:53 74° WSW 19:24:08 10° NNW
Aureole 3 4.2 19:14:55 10° SSW 19:20:48 75° W 19:25:24 10° N
Okean 3 3.7 19:18:59 10° NNW 19:23:09 72° W 19:27:18 10° S
Cosmos 1674 Rocket 4.2 19:19:34 10° NNW 19:23:51 57° W 19:28:05 10° S
Cosmos 2263 Rocket 4.0 19:22:24 10° SE 19:23:04 12° SE 19:23:04 12° SE
OAO 2 Rocket 4.4 19:22:52 10° SW 19:27:13 31° S 19:29:58 18° ESE
Cosmos 1602 4.2 19:24:02 10° SSE 19:27:38 37° E 19:31:14 10° NNE
Meteor 1-18 Rocket 4.2 19:23:38 10° N 19:29:16 90° WSW 19:34:49 10° S
Cosmos 1420 Rocket 4.3 19:25:37 10° NNW 19:30:54 73° WSW 19:36:11 10° S
Cosmos 921 Rocket 3.0 19:27:07 10° NNW 19:31:39 67° ENE 19:36:05 10° SSE
Cosmos 1908 Rocket 3.7 19:28:49 10° S 19:33:18 81° W 19:37:47 10° N
Cosmos 2034 Rocket 4.0 19:30:48 10° N 19:37:12 77° E 19:43:33 10° SSE
Cosmos 1891 Rocket 4.5 19:31:58 10° N 19:38:14 89° WSW 19:44:19 10° S
Meteor 1-25 Rocket 4.5 19:33:10 10° SSW 19:38:41 71° WNW 19:44:16 10° N
Tiangong 2 3.6 19:37:59 10° WSW 19:40:10 17° SSW 19:42:17 10° SSE
FREGAT/IRIS 3.2 19:38:19 10° S 19:41:14 56° W 19:44:10 10° NNW
Meteor 2-4 Rocket 4.2 19:36:46 10° N 19:42:12 39° ENE 19:45:18 22° SE
Meteor 1-19 Rocket 4.2 19:37:27 10° N 19:42:53 55° ENE 19:48:19 10° SSE
Cosmos 1437 Rocket 2.7 19:41:18 10° S 19:45:20 80° E 19:49:28 10° NNE
Cosmos 2227 4.3 19:40:42 10° S 19:46:16 55° ESE 19:51:50 10° NNE
Cosmos 44 Rocket 4.2 19:42:02 10° NW 19:46:56 53° WSW 19:51:55 10° SSE
ARGOS Delta rocket 3.7 19:42:48 10° NNE 19:47:37 60° E 19:52:08 10° S
Meteor 1-11 Rocket 4.0 19:43:35 10° SSE 19:48:47 43° E 19:54:08 10° NNE
Cosmos 1634 Rocket 4.4 19:43:46 10° N 19:49:30 38° ENE 19:52:05 27° ESE
Resurs 1-3 3.9 19:51:45 40° E 19:52:05 41° ENE 19:56:12 10° N
Cosmos 1816 Rocket 4.5 19:46:23 10° S 19:52:40 66° E 19:58:57 10° NNE
SeaSat 1 2.4 19:50:15 23° SE 19:53:21 69° ENE 19:58:17 10° NNW
Gbstr 26 Del rocket 3.0 19:51:48 10° SSW 19:55:12 44° SE 19:55:12 44° SE
USA 215 3.2 19:52:59 21° NE 19:57:33 69° SE 20:04:03 10° SW
Cosmos 1975 Rocket 3.1 19:55:05 10° N 19:59:32 83° W 20:04:00 10° S
Envisat 2.9 19:57:21 10° SSE 20:02:25 86° ENE 20:07:33 10° NNW
Cosmos 1939 Rocket 3.5 20:04:12 40° NE 20:04:12 40° NE 20:07:16 10° N
COSMOS 2455 3.1 19:59:10 10° S 20:04:47 43° ESE 20:05:36 41° E
Resurs 01 Rocket 1.6 20:06:03 58° E 20:06:12 58° ENE 20:10:33 10° N
CZ-4C R/B 3.3 20:02:08 10° NNW 20:08:45 42° NE 20:10:42 36° ENE
Thor Agena Rocket 3.5 20:03:54 10° NNE 20:09:00 83° WNW 20:14:03 10° SSW
SL-8 R/B 4.2 20:04:20 10° W 20:09:01 52° NNW 20:10:22 39° NE
Cosmos 1943 3.4 20:07:18 10° NNW 20:12:47 49° ENE 20:13:10 48° ENE
BREEZE-M DEB (TANK) 3.6 20:10:26 10° SW 20:13:38 61° SE 20:15:23 42° ENE
Cosmos 494 Rocket 3.8 20:12:04 10° S 20:17:15 71° ESE 20:19:03 41° NE
Cosmos 1110 Rocket 3.9 20:12:11 10° NNW 20:17:30 86° ENE 20:19:14 44° SSE
USA 186 4.0 20:27:59 21° NNW 20:27:59 21° NNW 20:29:15 10° NNW
ATLAS CENTAUR R/B 3.0 20:24:00 10° NNW 20:26:07 26° N 20:26:07 26° N
Meteor 1-23 Rocket 4.2 20:25:21 10° N 20:30:50 63° ENE 20:30:50 63° ENE
USA 267 3.5 20:30:03 46° ENE 20:31:09 50° NNE 20:37:25 10° NW
SL-16 R/B 4.5 20:26:54 10° NW 20:31:13 23° W 20:35:30 10° SSW
CENTAUR R/B 3.7 20:29:11 10° WSW 20:34:59 40° NW 20:41:36 10° NNE
H-2A R/B 4.2 20:40:37 14° NNE 20:40:37 14° NNE 20:41:35 10° N
Cosmos 1603 4.5 20:44:49 10° NW 20:50:14 48° WSW 20:52:03 35° SSW
Spot 2 Rocket 3.8 20:52:33 63° W 20:52:33 63° W 20:57:23 10° NNW
Geosat 4.4 20:54:24 60° W 20:54:24 60° W 20:58:54 10° SW
Cosmos 2263 Rocket 3.9 21:03:06 10° SSW 21:04:56 22° SSW 21:04:56 22° SSW
USA 215 4.1 21:40:20 44° NNW 21:40:21 44° NNW 21:46:27 10° W
CZ-4C R/B 3.7 21:50:33 10° NW 21:55:56 46° WNW 21:55:56 46° WNW
